Location: Newark
(45.0850°N, 11.6006°E)
Time: 10:10:28
(UTC+00:00)

OTV 5 (USA 277) - Visible Passes

Search period start: 23 October 2019 00:00
Search period end: 02 November 2019 00:00
Orbit: 310 x 324 km, 54.5° (Epoch: 17 October)

Date Brightness Start Highest point End Pass type
(mag) Time Alt. Az. Time Alt. Az. Time Alt. Az.
28 Oct ? 17:06:10 10° SSE 17:07:33 13° SE 17:07:46 13° SE visible
29 Oct ? 17:19:24 10° SSW 17:21:53 32° SE 17:22:16 30° ESE visible
30 Oct ? 17:33:37 10° SW 17:36:21 89° SSE 17:36:39 67° ENE visible
31 Oct ? 17:48:22 10° W 17:50:56 38° NNW 17:50:56 38° NNW visible
01 Nov ? 16:28:32 10° SW 16:31:11 52° SE 16:33:53 10° ENE visible
01 Nov ? 18:03:29 10° WNW 18:05:08 20° NW 18:05:08 20° NW visible
